Location: Home
(42.5358°N, 72.7383°W)
Time: 08:57:04
(UTC-04:00)

A-11 Canister half - Pass Details

Date: 27 June 2022
Orbit: 1514 x 1685 km, 47.2° (Epoch: 15 August)

Event Time Altitude Azimuth Distance (km) Brightness Sun altitude
Rises 22:29:03 0° 209° (SSW) 4,922 11.4 -16.2°
Reaches altitude 10° 22:32:26 10° 202° (SSW) 3,940 10.8 -16.5°
Maximum altitude 22:41:43 42° 136° (SE) 2,237 9.4 -17.4°
Drops below altitude 10° 22:50:53 10° 70° (ENE) 3,903 11.0 -18.3°
Sets 22:54:12 0° 64° (ENE) 4,873 11.6 -18.6°
